Starlink 34538

operational
NORAD ID: 64689 Int'l Des: 2025-139 Owner: SPXS Country: US Constellation: starlink
LEOCIRCULAR

About Starlink 34538

Description loading...

Live Position

Loading 3D Globe...

Upcoming Passes

Altitude History

Altitude vs Time

uPlot chart will show altitude changes over time

Two-Line Element Set

1 64689U 25139AB 25312.33602479 .00036270 00000-0 12301-2 0 9997
2 64689 53.1588 330.7576 0002104 97.1918 262.9322 15.30216926 21709
Epoch: Nov 8, 2025 • Age: 45 hours

Current Status

Altitude 491.9 km
Velocity 7.62 km/s
Sub-Earth Point -46.89°S, 69.87°E
Launch Date Jun 28, 2025
Age 0.3 years
Type internet

Technical Details

Classification Payload
Mass 575.00 kg
Dry Mass 530.00 kg
Total Mass 575.00 kg
Length 0.30 m
Diameter 4.10 m
Span 29.00 m
Shape Box + pan
Manufacturer SPXS
Bus Type Starlink V2MO
Phase Status In Orbit
Owner/State SPXS/US

Large Constellations

Loading constellations...